Wind_Speed
18 19 19 18 18 18 17 17 17 16 18 20 20 19 20 19 18 19 20 20 19 18 18 17 16 16 15 15 15 15 15 14 14 14 14 13 13 13 13 13 13 13 13 13
18 20 19 19 19 19 20 20 20 19 18 21 22 20 20 22 21 20 20 20 19 19 19 19 18 17 16 16 16 16 16 16 14 15 15 14 14 14 14 14 14 14 14 14
20 18 19 20 20 21 21 20 20 19 19 21 21 21 20 22 22 21 20 20 20 20 19 19 19 17 17 17 16 17 16 16 16 16 16 16 15 15 15 15 15 15 15 15
21 21 21 21 21 21 21 20 21 20 20 21 20 21 20 22 22 21 20 20 20 20 20 19 19 19 18 18 18 17 17 16 16 16 16 16 16 16 16 17 16 16 15 15
21 21 22 22 21 21 20 19 20 20 20 21 22 22 23 23 23 20 20 19 19 20 20 19 20 20 19 18 18 18 19 18 17 17 16 16 16 17 17 17 17 17 16 16
20 21 22 22 21 21 20 19 20 20 19 22 21 22 23 22 22 20 19 19 19 19 20 20 20 19 20 20 19 19 20 20 19 19 18 18 18 18 18 18 18 18 17 17
20 21 22 22 21 20 21 20 19 19 21 22 21 23 23 22 20 21 20 20 20 20 21 22 22 21 21 21 20 20 20 20 20 20 20 20 20 20 20 19 19 19 19 19
21 21 22 22 21 20 20 20 20 19 19 18 19 22 21 21 20 22 22 22 22 22 22 23 22 22 22 21 21 21 21 22 22 22 22 22 22 21 21 21 21 21 20 21
21 21 22 23 22 21 20 20 18 19 19 18 18 20 21 21 22 22 22 22 23 22 22 23 23 22 22 22 22 22 22 23 23 23 23 23 22 22 22 22 22 22 22 22
24 23 22 23 23 22 21 21 21 23 22 20 19 20 22 23 23 22 23 23 23 23 22 23 23 23 23 22 22 23 24 24 24 24 24 24 24 24 24 24 23 23 22 23
25 24 21 23 24 21 21 22 23 23 24 23 21 22 23 25 26 26 25 24 24 24 24 25 24 24 24 24 24 24 24 25 25 25 24 24 25 25 25 24 24 23 23 23
24 25 25 24 23 22 23 24 24 25 24 24 23 24 25 25 26 26 26 25 26 25 25 26 25 26 25 25 25 24 24 24 25 25 25 25 24 24 24 24 24 23 23 23
24 25 24 23 23 24 24 23 23 24 26 26 24 25 26 25 24 26 26 26 27 26 26 26 26 26 26 25 25 25 24 24 24 24 25 25 25 24 24 25 25 24 24 24
24 25 25 23 23 23 24 23 23 24 25 25 24 24 25 25 25 26 26 26 26 27 27 26 26 26 25 25 25 24 25 25 25 25 25 25 25 25 25 26 25 24 24 24
24 25 25 24 23 23 24 23 24 25 25 24 24 25 26 26 26 27 27 27 26 26 26 26 25 25 25 25 25 25 25 25 25 25 26 26 26 26 26 27 26 25 25 24
24 25 25 26 25 24 25 24 24 25 24 24 25 27 29 29 27 28 28 28 26 26 25 25 26 25 26 25 25 25 25 25 26 26 25 26 27 27 27 27 26 26 25 24
24 24 25 25 25 25 26 25 25 25 24 25 27 28 29 29 29 28 28 28 27 26 25 25 26 25 26 26 25 25 25 25 25 25 26 26 27 27 27 27 26 26 25 25
23 23 24 24 24 25 25 24 23 23 25 26 28 28 29 28 27 28 27 26 25 26 25 26 25 26 26 25 25 25 24 25 25 25 25 26 26 26 27 27 26 26 26 26
23 22 22 23 24 25 24 24 23 24 26 26 27 28 28 27 27 26 26 26 25 25 25 25 25 25 25 25 25 25 26 26 26 26 25 25 26 26 26 26 26 27 26 26
22 22 22 23 24 25 26 25 24 25 27 26 27 28 28 27 26 26 26 25 25 24 24 24 24 25 25 25 25 25 25 25 26 26 26 26 26 27 26 27 27 27 27 27
22 22 22 23 24 25 26 24 24 25 27 26 26 26 27 27 26 25 25 25 24 24 24 24 24 23 24 24 24 24 24 24 25 25 26 26 26 27 27 27 27 27 27 27
21 22 22 22 23 23 24 25 26 26 27 26 26 26 27 27 26 25 25 25 24 24 24 24 24 23 23 23 24 24 24 24 24 25 25 25 26 27 27 27 27 27 27 27
21 21 22 23 24 24 24 25 26 26 27 26 26 26 27 26 26 26 25 25 25 24 23 23 23 23 24 24 24 25 25 25 25 25 25 25 26 27 27 27 27 27 27 26
23 23 23 23 24 24 25 26 27 28 27 26 26 25 26 26 27 26 25 25 25 25 25 24 24 24 24 24 24 24 24 25 25 25 25 26 26 26 26 27 27 27 27 26
23 23 22 23 24 24 25 25 27 28 27 26 26 26 26 26 26 26 25 24 25 25 25 24 24 24 24 24 24 24 24 25 25 26 26 25 25 25 25 25 26 26 25 24
23 23 23 23 24 25 25 24 24 25 25 26 26 25 25 26 26 26 25 24 24 24 24 24 24 25 25 25 25 25 25 25 25 25 25 24 24 24 24 24 24 25 24 24
Wind_Direction
244 245 245 246 247 250 248 250 253 259 258 264 265 260 263 265 263 267 273 279 283 284 284 283 283 280 281 281 282 282 279 278 280 281 280 281 287 291 294 294 293 296 300 298
246 245 246 246 250 251 248 247 246 247 253 261 262 260 263 266 263 264 270 274 278 279 281 282 281 281 281 279 276 277 278 276 277 277 278 281 286 291 292 292 293 295 296 296
249 248 246 244 245 246 249 250 248 246 253 261 266 264 261 261 262 265 269 271 272 275 278 279 281 279 278 276 273 275 274 276 276 275 277 281 285 289 290 292 292 293 294 293
245 245 248 249 247 247 250 252 249 244 248 256 261 266 262 265 265 266 269 270 271 273 275 276 278 279 277 274 273 271 271 274 272 271 274 280 283 286 289 291 291 291 292 294
242 244 246 249 251 248 249 250 250 248 246 251 253 260 263 264 267 265 268 268 269 273 273 273 274 275 277 274 271 269 267 269 268 269 274 280 283 285 287 289 292 291 291 293
243 244 249 250 251 247 246 247 250 251 249 251 255 259 263 261 268 270 268 268 269 273 273 273 272 274 275 273 270 269 267 268 268 269 273 278 282 284 286 288 291 291 290 291
243 243 245 247 248 248 246 245 248 251 249 254 258 260 259 259 260 266 268 271 273 272 272 273 274 273 274 272 271 269 268 268 269 269 271 275 279 282 285 288 290 291 291 291
245 244 244 246 244 247 248 245 244 248 256 264 263 265 263 261 260 263 265 266 268 270 271 273 275 275 274 271 269 268 268 267 267 267 270 272 276 281 284 288 290 290 290 290
239 246 246 247 246 243 245 246 243 248 252 261 269 269 262 257 259 265 268 269 270 273 270 271 273 274 272 272 270 269 268 267 266 265 268 271 275 279 283 287 289 288 289 289
237 239 242 245 248 243 240 242 242 241 246 251 258 264 264 265 269 270 272 274 274 274 272 271 272 273 273 273 272 270 267 267 268 268 269 270 273 276 279 284 286 287 287 289
240 242 241 242 244 243 242 241 244 246 245 248 253 258 262 265 269 271 272 272 276 275 272 271 272 273 273 275 273 270 268 268 268 268 268 270 271 273 276 280 282 284 285 287
241 242 242 244 248 250 247 243 245 251 248 249 253 258 260 262 266 270 271 272 274 276 276 275 273 272 273 273 273 271 270 269 268 268 268 269 271 272 275 277 278 281 283 285
243 243 245 244 243 246 243 241 242 250 252 249 253 259 264 265 266 269 272 272 274 274 275 276 274 271 272 271 271 270 269 268 267 268 268 269 270 271 271 275 276 277 280 283
243 243 243 244 245 251 249 246 243 245 251 251 251 255 261 267 271 270 270 271 273 272 273 274 273 273 272 271 270 270 268 267 267 267 268 268 269 271 272 274 276 276 279 282
248 246 245 244 244 247 249 249 247 248 251 253 256 258 264 269 272 272 273 273 274 271 272 272 270 271 270 270 271 271 269 267 268 268 268 269 270 270 271 273 274 276 279 281
251 249 249 246 243 246 248 248 246 248 250 254 259 261 263 268 272 273 273 273 275 273 271 270 269 269 268 270 271 271 269 268 267 266 267 268 269 270 272 273 275 275 277 280
254 252 250 248 244 247 248 250 247 248 249 253 258 262 263 265 269 271 274 276 273 272 270 270 271 270 270 271 270 269 268 268 267 266 267 268 269 270 272 274 275 275 277 280
256 253 252 249 246 248 250 248 248 251 253 256 258 260 262 266 269 270 273 275 273 271 270 270 270 271 271 270 270 269 269 268 267 267 268 268 268 270 272 273 274 275 276 279
257 255 254 250 247 250 249 247 246 248 253 256 258 258 263 266 268 269 272 275 273 272 271 272 271 270 270 269 269 269 269 269 268 268 268 268 267 271 272 273 275 275 275 277
257 253 253 251 248 249 249 250 251 254 255 256 257 259 263 266 268 270 273 275 274 273 271 272 272 271 271 270 269 271 270 269 269 268 268 268 269 271 272 274 276 276 275 276
256 252 253 253 251 250 249 251 254 255 256 258 261 263 265 268 270 272 273 275 274 271 270 270 271 272 270 269 269 272 273 272 271 270 269 269 270 272 273 275 276 275 274 276
256 252 253 253 252 250 250 250 251 254 258 259 262 265 266 266 268 270 271 271 271 271 271 271 272 272 271 269 269 270 272 273 273 272 271 271 273 274 274 275 275 275 274 276
255 254 254 253 250 250 253 251 253 256 259 259 261 263 264 264 267 269 269 269 270 271 271 271 271 271 272 271 268 267 270 271 272 272 273 273 274 274 274 275 275 275 275 275
256 254 253 251 248 248 254 252 253 258 259 257 260 263 265 264 266 269 268 268 270 270 270 271 271 271 272 271 269 268 269 269 271 271 272 273 274 275 275 275 275 275 274 275
254 257 257 254 251 253 254 254 256 259 260 261 260 262 263 264 265 267 267 267 268 270 272 272 273 272 270 270 270 269 269 270 270 271 271 273 275 275 276 275 275 275 274 275
252 254 255 254 254 256 255 255 259 260 260 261 261 264 264 263 265 266 268 268 269 271 273 273 272 272 271 270 271 272 272 271 272 272 272 272 273 274 275 275 276 275 274 275
Height
5851 5853 5855 5857 5859 5861 5863 5865 5867 5869 5869 5868 5868 5869 5868 5867 5868 5867 5867 5866 5865 5865 5864 5863 5862 5862 5863 5863 5863 5862 5863 5863 5863 5863 5863 5864 5864 5864 5863 5863 5863 5862 5861 5860
5847 5849 5852 5854 5855 5857 5858 5860 5862 5864 5865 5864 5864 5864 5864 5863 5863 5863 5863 5863 5862 5861 5860 5859 5859 5859 5860 5859 5859 5860 5860 5860 5861 5861 5861 5862 5862 5861 5861 5861 5860 5860 5859 5858
5843 5847 5847 5849 5851 5852 5854 5855 5857 5859 5860 5860 5860 5860 5859 5859 5858 5858 5859 5859 5859 5858 5857 5856 5855 5856 5856 5856 5855 5856 5857 5857 5858 5858 5858 5859 5859 5858 5858 5858 5858 5857 5856 5855
5839 5841 5842 5844 5846 5847 5848 5851 5852 5854 5855 5855 5856 5854 5853 5853 5853 5853 5855 5855 5855 5854 5854 5853 5852 5852 5852 5853 5853 5853 5853 5854 5854 5854 5855 5856 5856 5856 5856 5855 5854 5854 5853 5852
5834 5836 5838 5839 5842 5843 5845 5847 5847 5848 5849 5850 5850 5850 5850 5849 5848 5848 5850 5851 5851 5850 5849 5849 5848 5848 5848 5849 5849 5850 5850 5850 5850 5851 5852 5852 5852 5852 5852 5851 5851 5850 5850 5849
5829 5832 5833 5835 5837 5838 5840 5842 5842 5843 5844 5845 5845 5846 5845 5845 5844 5844 5845 5846 5846 5846 5845 5845 5844 5845 5844 5844 5845 5846 5846 5847 5847 5848 5848 5848 5849 5849 5848 5848 5847 5846 5846 5845
5824 5826 5828 5829 5832 5834 5835 5837 5838 5839 5839 5840 5840 5840 5841 5840 5840 5841 5841 5842 5841 5842 5841 5840 5839 5840 5839 5839 5840 5841 5841 5842 5843 5843 5844 5844 5845 5845 5844 5843 5843 5842 5841 5841
5819 5822 5823 5824 5826 5829 5830 5832 5834 5835 5836 5835 5835 5835 5836 5835 5835 5836 5836 5837 5836 5836 5836 5835 5835 5835 5835 5834 5835 5836 5837 5837 5838 5839 5839 5840 5840 5840 5839 5839 5838 5838 5837 5836
5814 5817 5818 5818 5821 5823 5825 5827 5830 5831 5832 5832 5833 5833 5831 5830 5831 5831 5831 5831 5831 5831 5831 5830 5830 5830 5830 5831 5831 5831 5832 5832 5832 5833 5834 5834 5834 5835 5834 5834 5833 5833 5832 5831
5808 5811 5813 5813 5815 5817 5820 5822 5824 5825 5826 5827 5829 5828 5826 5825 5826 5826 5826 5826 5826 5826 5825 5825 5825 5825 5825 5826 5826 5826 5826 5827 5827 5828 5828 5829 5829 5829 5829 5828 5828 5827 5826 5826
5803 5805 5808 5808 5809 5812 5815 5816 5817 5819 5820 5822 5823 5825 5821 5820 5819 5820 5820 5820 5820 5819 5819 5819 5820 5819 5820 5820 5820 5820 5820 5821 5821 5822 5822 5822 5823 5823 5823 5823 5823 5822 5821 5820
5796 5799 5801 5803 5804 5806 5807 5809 5811 5813 5814 5815 5816 5819 5815 5814 5813 5814 5814 5814 5814 5814 5814 5813 5814 5814 5813 5813 5814 5814 5814 5815 5815 5816 5816 5816 5816 5816 5817 5817 5817 5816 5815 5815
5790 5792 5795 5797 5800 5800 5800 5802 5805 5807 5808 5809 5810 5812 5808 5807 5806 5807 5807 5807 5808 5808 5807 5807 5807 5807 5807 5807 5807 5807 5808 5808 5809 5809 5810 5810 5810 5810 5810 5810 5810 5810 5809 5809
5784 5786 5788 5791 5792 5793 5794 5796 5798 5800 5801 5802 5803 5804 5801 5800 5800 5801 5801 5800 5800 5800 5800 5800 5801 5800 5800 5800 5800 5800 5800 5801 5802 5802 5803 5803 5804 5804 5804 5804 5804 5803 5803 5803
5777 5779 5781 5783 5785 5787 5788 5789 5792 5793 5794 5796 5797 5797 5795 5794 5794 5793 5794 5793 5792 5792 5793 5793 5793 5794 5794 5794 5793 5793 5793 5794 5795 5795 5796 5796 5797 5797 5797 5797 5797 5797 5797 5797
5771 5773 5774 5776 5779 5780 5781 5782 5784 5787 5789 5790 5791 5791 5790 5788 5787 5787 5787 5786 5786 5785 5786 5786 5786 5787 5787 5787 5787 5787 5787 5787 5788 5789 5789 5790 5790 5790 5790 5790 5791 5791 5791 5791
5764 5766 5768 5770 5772 5773 5775 5776 5778 5780 5781 5783 5784 5784 5783 5782 5781 5781 5781 5780 5779 5779 5779 5780 5780 5780 5780 5780 5780 5780 5780 5780 5781 5782 5782 5783 5783 5784 5784 5784 5784 5784 5784 5784
5758 5759 5761 5763 5765 5766 5770 5769 5771 5773 5774 5775 5775 5775 5775 5774 5774 5774 5773 5772 5773 5773 5773 5773 5773 5773 5773 5774 5774 5773 5774 5774 5774 5774 5775 5775 5776 5777 5777 5777 5777 5777 5777 5777
5751 5753 5754 5756 5758 5760 5761 5762 5764 5765 5766 5767 5768 5768 5767 5768 5768 5768 5768 5767 5767 5766 5766 5766 5766 5766 5766 5767 5767 5767 5767 5767 5767 5767 5768 5768 5769 5770 5770 5770 5770 5770 5770 5770
5745 5746 5749 5750 5751 5753 5755 5756 5757 5759 5758 5759 5760 5760 5761 5762 5763 5763 5762 5761 5761 5760 5759 5760 5760 5760 5760 5760 5760 5760 5760 5760 5760 5760 5760 5761 5762 5762 5763 5763 5763 5763 5763 5763
5739 5740 5742 5743 5744 5745 5747 5749 5751 5752 5752 5752 5753 5754 5755 5755 5756 5756 5755 5755 5755 5754 5754 5754 5754 5754 5754 5754 5754 5754 5754 5753 5753 5753 5753 5754 5754 5755 5755 5756 5756 5756 5755 5755
5733 5734 5736 5737 5737 5740 5740 5742 5744 5744 5744 5745 5746 5747 5748 5748 5749 5749 5749 5749 5749 5748 5748 5748 5748 5748 5748 5748 5748 5748 5747 5747 5747 5747 5747 5747 5747 5748 5748 5748 5748 5748 5748 5748
5727 5729 5729 5731 5733 5732 5733 5734 5736 5737 5738 5739 5740 5741 5741 5742 5742 5742 5742 5742 5742 5742 5742 5741 5741 5741 5741 5741 5741 5741 5741 5740 5740 5740 5740 5740 5740 5740 5741 5741 5741 5741 5740 5740
5720 5722 5722 5723 5724 5725 5726 5727 5728 5729 5730 5731 5733 5734 5734 5734 5735 5735 5735 5735 5735 5735 5735 5735 5735 5735 5734 5734 5734 5734 5734 5734 5734 5734 5734 5733 5733 5733 5733 5733 5733 5733 5733 5733
5714 5715 5716 5717 5717 5718 5719 5721 5722 5723 5724 5724 5725 5726 5726 5727 5728 5728 5728 5728 5728 5728 5728 5727 5727 5727 5727 5727 5727 5727 5727 5727 5727 5727 5727 5726 5726 5726 5726 5726 5726 5725 5725 5725
5707 5709 5710 5711 5711 5712 5713 5714 5716 5716 5717 5718 5718 5718 5719 5720 5720 5721 5721 5721 5721 5721 5721 5721 5720 5720 5720 5720 5720 5720 5720 5720 5719 5719 5719 5719 5719 5719 5719 5718 5718 5718 5718 5718